Bandon, OR

1:01 PM PDT on March 27, 2017 (GMT -0700)
s.e. bandon | | Change Station

Elev 69 ft 43.12 °N, 124.40 °W | Updated 23 seconds ago

Mostly Cloudy
Mostly Cloudy
55.7 °F
Feels Like 55.7 °F
N
3.0
Wind Variable Wind from South

Today
High -- | Low -- °F
--% Chance of Precip.
Yesterday
High -- | Low -- °F
Precip. -- in
Pressure 30.32 in
Visibility 10.0 miles
Clouds Few 2400 ft
Dew Point 43 °F
Humidity 63%
Rainfall 0.27 in
Snow Depth Not available.
7:07 AM 7:38 PM
Waning Crescent, 0% visible
METAR KOTH 271955Z 27012G15KT 10SM FEW024 12/07 A3032 RMK AO1
Pressure 30.32 in
Visibility 10.0 miles
Clouds Few 2400 ft
Dew Point 43 °F
Humidity 63%
Rainfall 0.27 in
Snow Depth Not available.
7:07 AM 7:38 PM
Waning Crescent, 0% visible
METAR KOTH 271955Z 27012G15KT 10SM FEW024 12/07 A3032 RMK AO1

Get Severe Weather Alerts

Thanks for signing up!

Be on the lookout for a verification email in your inbox.

You'll start receiving the daily forecast at 8 AM.

×

10-Day Weather Forecast

Almanac

Astronomy

Mar. 27, 2017 Rise Set
Actual Time
Civil Twilight
Nautical Twilight
Astronomical Twilight
Moon
Length of Visible Light
Length of Day
Tomorrow will be .
, % of the Moon is Illuminated

Today's Extremes

State Highs State Lows

Community

WunderPhotos

Upload Photos

1,962,540 photos uploaded!

WunderBlog® & News

Nearby

Air Quality

  Air Quality AQ Index Pollutant
Not available.

Snow Depth

Station Depth Elevation

Earthquake Activity

City Distance Mag. Time & Date
Minimum magnitude displayed is 2.5.

Earthquake Activity

City Distance Mag. Time & Date
Minimum magnitude displayed is 2.5.

Coastal Water Temperatures

Place Temperature

Stations

Nearby Weather Stations

Station Location Temp. Windchill Dew Point Humidity Wind Precip. Elev Updated Type
                   

Watches & Warnings

There are currently no watches in effect.